[TLELIST] Archives

 

[TLELIST] Current TLEs

November 11th 2024 PST

HST 1 20580U 90037B 24315.68845433 .00014543 00000-0 62816-3 0 9993 2 20580 28.4679 81.4935 0002087 180.7628 179.2962 15.21000967699339 ISS (ZARYA) 1 25544U 98067A 24316.21060541 .00023146 00000-0 39278-3 0 9993 2 25544 51.6386 307.0136 0008481 162.7826 197.3453 15.51344621481359 CXO 1 25867U 99040B 24318.59143727 .00000691 00000-0 00000-0 0 9992 2 25867 44.5231 142.0444 8730833 303.9002 0.2087 0.37812291 15126 ...Continue Reading

[TLELIST] Current TLEs

November 11th 2024 PST

HST 1 20580U 90037B 24315.68845433 .00014543 00000-0 62816-3 0 9993 2 20580 28.4679 81.4935 0002087 180.7628 179.2962 15.21000967699339 ISS (ZARYA) 1 25544U 98067A 24316.21060541 .00023146 00000-0 39278-3 0 9993 2 25544 51.6386 307.0136 0008481 162.7826 197.3453 15.51344621481359 CXO 1 25867U 99040B 24318.59143727 .00000691 00000-0 00000-0 0 9992 2 25867 44.5231 142.0444 8730833 303.9002 0.2087 0.37812291 15126 ...Continue Reading

[TLELIST] Current TLEs

November 10th 2024 PST

HST 1 20580U 90037B 24314.70422369 .00022350 00000-0 96974-3 0 9991 2 20580 28.4677 88.1208 0002313 168.2375 191.8273 15.20978544699188 ISS (ZARYA) 1 25544U 98067A 24315.17990951 .00026938 00000-0 45635-3 0 9990 2 25544 51.6390 312.1292 0008497 158.8307 201.3036 15.51300168481194 CXO 1 25867U 99040B 24315.94490051 .00000867 00000-0 00000-0 0 9998 2 25867 44.4345 142.2854 8731014 303.7599 359.9118 0.37806614 15120 ...Continue Reading

[TLELIST] Current TLEs

November 9th 2024 PST

HST 1 20580U 90037B 24313.71997390 .00014882 00000-0 64414-3 0 9997 2 20580 28.4677 94.7485 0002427 157.7745 202.2953 15.20938467699034 ISS (ZARYA) 1 25544U 98067A 24314.35918063 .00089082 00000-0 14809-2 0 9990 2 25544 51.6405 316.2008 0008402 156.3395 297.3225 15.51274625481066 CXO 1 25867U 99040B 24313.30258683 .00000952 00000-0 00000-0 0 9994 2 25867 44.3702 142.4641 8733067 303.6795 0.1280 0.37805640 15100 ...Continue Reading

[TLELIST] Current TLEs

November 9th 2024 PST

HST 1 20580U 90037B 24313.71997390 .00014882 00000-0 64414-3 0 9997 2 20580 28.4677 94.7485 0002427 157.7745 202.2953 15.20938467699034 ISS (ZARYA) 1 25544U 98067A 24314.35918063 .00089082 00000-0 14809-2 0 9990 2 25544 51.6405 316.2008 0008402 156.3395 297.3225 15.51274625481066 CXO 1 25867U 99040B 24313.30258683 .00000952 00000-0 00000-0 0 9994 2 25867 44.3702 142.4641 8733067 303.6795 0.1280 0.37805640 15100 ...Continue Reading

[TLELIST] Current TLEs

November 8th 2024 PST

HST 1 20580U 90037B 24312.73570343 .00014945 00000-0 64744-3 0 9999 2 20580 28.4675 101.3755 0002532 147.5093 212.5656 15.20910120698889 ISS (ZARYA) 1 25544U 98067A 24313.27832176 .00022971 00000-0 38969-3 0 9998 2 25544 51.6408 321.5668 0009033 147.3123 26.1329 15.51352866480897 CXO 1 25867U 99040B 24313.30258683 .00000952 00000-0 00000-0 0 9994 2 25867 44.3702 142.4641 8733067 303.6795 0.1280 0.37805640 15100 ...Continue Reading

[TLELIST] Current TLEs

November 7th 2024 PST

HST 1 20580U 90037B 24311.75141434 .00015888 00000-0 68932-3 0 9995 2 20580 28.4669 108.0020 0002626 137.8702 222.2094 15.20881466698732 ISS (ZARYA) 1 25544U 98067A 24312.36869174 .00024640 00000-0 41797-3 0 9993 2 25544 51.6407 326.0830 0008957 143.7039 346.2840 15.51312396480750 CXO 1 25867U 99040B 24313.30258683 .00000952 00000-0 00000-0 0 9994 2 25867 44.3702 142.4641 8733067 303.6795 0.1280 0.37805640 15100 ...Continue Reading

[TLELIST] Current TLEs

November 6th 2024 PST

HST 1 20580U 90037B 24310.57024183 .00014545 00000-0 63113-3 0 9990 2 20580 28.4661 115.9533 0002687 126.5479 233.5362 15.20843224698556 ISS (ZARYA) 1 25544U 98067A 24311.25031861 .00031109 00000-0 52624-3 0 9993 2 25544 51.6389 331.6368 0008863 141.1428 219.0200 15.51258662480580 CXO 1 25867U 99040B 24313.30258683 .00000952 00000-0 00000-0 0 9994 2 25867 44.3702 142.4641 8733067 303.6795 0.1280 0.37805640 15100 ...Continue Reading

[TLELIST] Current TLEs

November 5th 2024 PST

HST 1 20580U 90037B 24309.78277759 .00015258 00000-0 66294-3 0 9995 2 20580 28.4657 121.2548 0002732 119.5915 240.4950 15.20818237698438 ISS (ZARYA) 1 25544U 98067A 24309.83301094 .00030182 00000-0 51246-3 0 9991 2 25544 51.6388 338.6707 0008917 136.9418 223.2270 15.51169947480361 CXO 1 25867U 99040B 24310.65906912 .00000923 00000-0 00000-0 0 9992 2 25867 44.3059 142.6326 8736331 303.5992 0.1784 0.37808045 15091 ...Continue Reading

[TLELIST] Current TLEs

November 4th 2024 PST

HST 1 20580U 90037B 24309.19217057 .00017875 00000-0 77824-3 0 9993 2 20580 28.4655 125.2307 0002755 113.5774 246.5109 15.20802683698605 ISS (ZARYA) 1 25544U 98067A 24309.38430844 .00036228 00000-0 61358-3 0 9999 2 25544 51.6406 340.8943 0008960 135.8330 237.0511 15.51146575480293 CXO 1 25867U 99040B 24310.65906912 .00000923 00000-0 00000-0 0 9992 2 25867 44.3059 142.6326 8736331 303.5992 0.1784 0.37808045 15091 ...Continue Reading
  • This mailing list is a public mailing list - anyone may join or leave, at any time.
  • This mailing list is announce-only.

International Space Station (ISS) / Hubble Space Telescope (HST) / Chandra X-Ray Observatory Orbital Data via EMAIL

Privacy Policy:

Private list